Total_Precipitation_Accumulation
0.45 0.45 0.50 0.52 0.53 0.54 0.56 0.52 0.50 0.45 0.43 0.44 0.46 0.49 0.48 0.53 0.71 0.89 0.86 0.78 0.83 0.91 0.99 1.10 1.14 1.18 1.17 1.05 0.99 0.96 0.97 1.05 0.99 0.83 0.78 0.80 0.69 0.53 0.47 0.44 0.41 0.40 0.36
0.29 0.32 0.36 0.44 0.48 0.50 0.55 0.58 0.56 0.50 0.43 0.38 0.38 0.41 0.43 0.51 0.66 0.95 1.10 1.11 1.08 1.00 1.06 1.24 1.32 1.27 1.16 1.08 1.06 1.00 0.99 1.08 1.02 0.93 0.90 0.85 0.77 0.67 0.58 0.52 0.44 0.40 0.38
0.22 0.25 0.31 0.36 0.41 0.47 0.51 0.50 0.48 0.48 0.46 0.44 0.44 0.46 0.49 0.50 0.54 0.72 0.94 1.04 1.06 1.02 1.08 1.13 1.15 1.21 1.17 1.09 1.03 0.98 0.97 1.07 1.07 0.98 1.04 1.03 0.92 0.80 0.69 0.58 0.50 0.48 0.41
0.22 0.28 0.32 0.36 0.40 0.43 0.46 0.49 0.48 0.50 0.51 0.50 0.50 0.52 0.52 0.48 0.47 0.59 0.75 0.84 0.89 0.93 0.98 1.01 1.03 1.05 1.10 1.15 1.09 1.03 1.05 1.07 1.08 1.07 1.09 1.22 1.12 0.96 0.80 0.66 0.57 0.52 0.47
0.25 0.30 0.32 0.37 0.40 0.40 0.43 0.48 0.53 0.56 0.57 0.61 0.65 0.62 0.57 0.50 0.47 0.60 0.69 0.66 0.72 0.79 0.79 0.76 0.85 1.01 1.10 1.16 1.07 1.04 1.11 1.10 1.09 1.13 1.15 1.27 1.29 1.14 0.91 0.70 0.61 0.59 0.55
0.39 0.41 0.39 0.40 0.44 0.44 0.47 0.49 0.56 0.60 0.65 0.72 0.76 0.76 0.69 0.54 0.55 0.60 0.61 0.59 0.65 0.70 0.71 0.67 0.67 0.77 0.91 0.99 0.98 0.96 1.01 1.06 1.09 1.12 1.18 1.25 1.31 1.23 1.06 0.90 0.75 0.64 0.59
0.46 0.55 0.56 0.56 0.58 0.59 0.62 0.65 0.67 0.76 0.80 0.83 0.81 0.81 0.77 0.73 0.66 0.56 0.51 0.50 0.56 0.62 0.63 0.60 0.51 0.50 0.66 0.75 0.84 0.88 0.86 0.85 0.92 1.06 1.17 1.18 1.30 1.35 1.28 1.07 0.96 0.84 0.67
0.65 0.74 0.83 0.85 0.87 0.92 0.97 0.93 0.94 0.98 1.02 1.01 0.96 0.94 0.98 0.91 0.81 0.68 0.60 0.51 0.51 0.52 0.54 0.55 0.57 0.56 0.57 0.62 0.72 0.79 0.81 0.79 0.77 0.83 0.96 1.14 1.32 1.48 1.46 1.33 1.22 1.07 0.87
0.87 0.95 1.01 1.07 1.12 1.15 1.13 1.16 1.22 1.30 1.29 1.27 1.21 1.20 1.22 1.24 1.16 0.95 0.83 0.69 0.64 0.63 0.67 0.67 0.65 0.60 0.58 0.53 0.58 0.62 0.66 0.75 0.74 0.74 0.82 1.03 1.22 1.36 1.51 1.45 1.31 1.12 0.93
0.84 0.91 1.07 1.23 1.34 1.32 1.30 1.39 1.49 1.57 1.53 1.51 1.48 1.48 1.45 1.44 1.31 1.01 0.87 0.77 0.80 0.80 0.84 0.80 0.66 0.55 0.48 0.43 0.47 0.53 0.54 0.56 0.67 0.72 0.75 0.85 1.01 1.14 1.29 1.29 1.15 1.09 0.92
0.98 1.05 1.16 1.31 1.43 1.44 1.48 1.51 1.59 1.64 1.63 1.59 1.52 1.46 1.40 1.37 1.25 0.98 0.88 0.81 0.85 0.90 0.84 0.79 0.72 0.57 0.43 0.39 0.39 0.46 0.49 0.56 0.65 0.71 0.81 0.93 1.08 1.20 1.20 1.17 1.13 1.01 0.91
1.23 1.33 1.38 1.44 1.42 1.39 1.49 1.56 1.61 1.68 1.65 1.60 1.58 1.47 1.37 1.33 1.18 0.99 0.84 0.80 0.87 0.97 0.96 0.90 0.85 0.68 0.50 0.45 0.40 0.40 0.41 0.43 0.57 0.65 0.71 0.83 0.98 1.13 1.23 1.28 1.27 1.13 0.95
1.27 1.31 1.40 1.43 1.43 1.41 1.45 1.50 1.62 1.70 1.68 1.62 1.60 1.58 1.48 1.37 1.31 1.09 0.90 0.79 0.86 0.96 1.08 1.11 0.97 0.81 0.66 0.56 0.54 0.52 0.46 0.44 0.56 0.66 0.67 0.71 0.79 0.94 1.22 1.45 1.55 1.48 1.20
1.01 1.05 1.08 1.15 1.22 1.31 1.41 1.42 1.47 1.55 1.62 1.64 1.61 1.53 1.47 1.45 1.47 1.29 1.08 0.93 0.92 1.03 1.12 1.16 1.05 0.95 0.81 0.68 0.63 0.57 0.50 0.47 0.52 0.61 0.65 0.72 0.83 0.97 1.15 1.35 1.55 1.59 1.42
0.86 0.86 0.93 1.01 1.10 1.24 1.38 1.44 1.36 1.38 1.45 1.44 1.35 1.29 1.28 1.29 1.33 1.26 1.10 1.03 1.02 1.09 1.17 1.26 1.21 1.12 1.04 0.92 0.83 0.77 0.71 0.65 0.60 0.62 0.75 0.82 0.90 0.94 1.03 1.17 1.39 1.50 1.37
0.83 0.79 0.82 0.87 0.97 1.08 1.19 1.25 1.12 0.96 0.95 0.93 0.84 0.75 0.73 0.75 0.83 0.85 0.79 0.74 0.78 0.89 1.02 1.19 1.18 1.10 1.06 1.04 1.00 0.94 0.90 0.84 0.79 0.79 0.84 0.91 0.94 0.97 1.03 1.13 1.25 1.34 1.29
0.82 0.75 0.74 0.76 0.83 0.88 0.96 1.07 1.10 0.94 0.73 0.64 0.52 0.42 0.39 0.42 0.54 0.63 0.68 0.66 0.66 0.70 0.82 1.00 1.02 1.01 1.03 1.07 1.05 0.97 0.90 0.91 0.95 0.93 0.89 0.93 0.98 1.01 1.04 1.12 1.17 1.25 1.28
0.90 0.78 0.68 0.67 0.73 0.77 0.82 0.90 0.99 1.05 0.96 0.76 0.53 0.34 0.29 0.32 0.42 0.56 0.68 0.67 0.69 0.68 0.73 0.87 0.92 0.95 0.99 1.05 1.04 1.03 1.00 1.02 1.05 1.01 0.98 0.99 1.06 1.09 1.07 1.08 1.15 1.18 1.23
0.80 0.81 0.71 0.66 0.69 0.75 0.79 0.84 0.91 0.97 1.04 1.00 0.78 0.50 0.36 0.37 0.46 0.60 0.69 0.68 0.78 0.79 0.81 0.87 0.91 0.92 0.95 1.02 1.05 1.06 1.08 1.11 1.10 1.10 1.10 1.11 1.16 1.22 1.13 1.07 1.13 1.20 1.17
0.63 0.59 0.57 0.62 0.66 0.72 0.78 0.81 0.85 0.94 1.00 1.02 0.92 0.69 0.45 0.40 0.49 0.66 0.75 0.81 0.86 0.87 0.88 0.87 0.92 0.94 0.96 0.98 1.02 1.03 1.06 1.11 1.11 1.12 1.17 1.20 1.20 1.21 1.14 1.10 1.10 1.15 1.10
0.53 0.47 0.37 0.48 0.62 0.68 0.74 0.79 0.81 0.87 0.95 0.97 0.89 0.59 0.38 0.38 0.51 0.67 0.80 0.89 0.89 0.89 0.89 0.89 0.90 0.88 0.89 0.93 0.96 0.99 1.07 1.11 1.11 1.11 1.16 1.21 1.21 1.19 1.14 1.13 1.11 1.11 1.15
0.53 0.52 0.39 0.42 0.56 0.62 0.65 0.78 0.82 0.84 0.87 0.89 0.80 0.54 0.42 0.46 0.60 0.73 0.89 0.93 0.89 0.88 0.85 0.86 0.86 0.85 0.83 0.86 0.95 1.02 1.09 1.11 1.09 1.08 1.11 1.15 1.16 1.15 1.13 1.12 1.14 1.17 1.19
0.45 0.50 0.42 0.40 0.50 0.50 0.58 0.77 0.81 0.81 0.83 0.83 0.69 0.58 0.56 0.66 0.77 0.87 0.97 0.97 0.91 0.88 0.87 0.86 0.84 0.81 0.75 0.76 0.80 0.88 1.00 1.05 1.01 0.99 1.05 1.05 1.07 1.05 1.01 0.99 1.02 1.09 1.12
0.39 0.47 0.40 0.33 0.38 0.47 0.59 0.70 0.76 0.75 0.77 0.81 0.71 0.62 0.63 0.72 0.80 0.86 0.91 0.88 0.81 0.82 0.82 0.79 0.73 0.69 0.68 0.74 0.78 0.75 0.75 0.75 0.75 0.79 0.86 0.90 0.95 0.99 0.96 0.93 0.97 1.00 1.07
0.40 0.47 0.39 0.30 0.32 0.41 0.56 0.68 0.75 0.76 0.77 0.76 0.68 0.62 0.63 0.71 0.78 0.77 0.74 0.72 0.70 0.71 0.68 0.67 0.68 0.67 0.63 0.57 0.58 0.56 0.55 0.51 0.49 0.54 0.66 0.76 0.81 0.90 0.95 0.97 1.01 1.08 1.10
0.36 0.42 0.39 0.30 0.28 0.36 0.51 0.61 0.68 0.72 0.74 0.73 0.69 0.67 0.69 0.71 0.68 0.64 0.63 0.63 0.63 0.63 0.60 0.58 0.58 0.55 0.53 0.49 0.45 0.45 0.42 0.38 0.36 0.40 0.46 0.58 0.68 0.79 0.86 0.89 0.91 1.00 1.05